Location: Narrabri
(30.3170°S, 149.7830°E)
Time: 12:41:10
(UTC+10:00)

Tiangong 2 - Visible Passes

Search period start: 26 May 2018 00:00
Search period end: 05 June 2018 00:00
Orbit: 382 x 385 km, 42.8° (Epoch: 25 May)

Date Brightness Start Highest point End Pass type
(mag) Time Alt. Az. Time Alt. Az. Time Alt. Az.
26 May 3.3 05:14:04 11° NNW 05:16:35 25° NE 05:19:17 10° E visible
27 May 1.1 05:50:39 13° WNW 05:53:21 66° SSW 05:56:34 10° SE visible
28 May 2.7 04:54:36 35° E 04:54:36 35° E 04:56:43 10° ESE visible
29 May 1.9 05:30:31 33° SSW 05:30:31 33° SSW 05:33:28 10° SE visible
30 May 3.2 06:06:12 11° SW 06:07:45 14° SSW 06:09:37 10° SSE visible
31 May 3.6 05:09:30 14° SSE 05:09:30 14° SSE 05:10:13 10° SSE visible
01 Jun 3.5 05:44:53 11° SSW 05:45:04 11° S 05:46:05 10° S visible
